Tracking 25701 objects as of 4-Jul-2022
HD Live streaming from Space Station
objects crossing your sky now

FENGYUN 1C DEB

Track FENGYUN 1C DEB now!
10-day predictions


NORAD ID: 32368
Int'l Code: 1999-025CZM
Perigee: 710.7 km
Apogee: 1,132.0 km
Inclination: 97.9 °
Period: 103.3 minutes
Semi major axis: 7292 km
RCS: 0.0082 m2 (small)
Launch date: May 10, 1999
Source: People's Republic of China (PRC)
Launch site: Taiyaun Space Center, China (TSC)

Note: This is SATELLITE DEBRIS
aabbcc
Your satellite tracking list
Your tracking list is empty




NASA's NSSDC Master Catalog

Two Line Element Set (TLE):
1 32368U 99025CZM 22183.94241400  .00000829  00000-0  46192-3 0  9991
2 32368  97.8566  80.2287 0288864 241.1815 116.0069 13.94127879417040
Source of the keplerian elements: AFSPC